EW4210 Weather Reports


Display with metric or nautical units.
time (UTC)temp
F
wind
direction
speed
MPH
gust
MPH
rain 1hr
in
rain 24hr
in
rain mn
in
humidity
%
barometer
mb
20260509183056 81 123 2.0 4.0 0.00 0.00 0.00 51 1010.0
20260509181539 80 95 1.0 4.0 0.00 0.00 0.00 53 1010.1
20260509180020 80 92 1.0 3.0 0.00 0.00 0.00 58 1010.2
20260509174506 79 299 1.0 3.0 0.00 0.00 0.00 55 1010.2
20260509173043 79 284 0.0 3.0 0.00 0.00 0.00 61 1010.4
20260509171528 78 124 2.0 4.0 0.00 0.00 0.00 61 1010.5
20260509170006 77 148 2.0 4.0 0.00 0.00 0.00 62 1010.4
20260509164554 76 336 2.0 3.0 0.00 0.00 0.00 63 1010.4
20260509163025 75 296 0.0 4.0 0.00 0.00 0.00 69 1010.4
20260509161506 74 305 1.0 4.0 0.00 0.00 0.00 71 1010.4
20260509160042 74 286 1.0 3.0 0.00 0.00 0.00 70 1010.4
20260509154524 72 326 1.0 3.0 0.00 0.00 0.00 72 1010.4
20260509153057 72 341 1.0 3.0 0.00 0.00 0.00 74 1010.5
20260509153011 72 341 1.0 3.0 0.00 0.00 0.00 75 1010.5
20260509151539 71 290 1.0 5.0 0.00 0.00 0.00 75 1010.5
20260509150022 71 288 1.0 3.0 0.00 0.00 0.00 73 1010.4
20260509144559 71 198 0.0 3.0 0.00 0.00 0.00 76 1010.6
20260509143039 70 288 1.0 2.0 0.00 0.00 0.00 76 1010.7
20260509141515 68 192 0.0 3.0 0.00 0.00 0.00 80 1010.7
20260509140047 67 138 0.0 2.0 0.00 0.00 0.00 83 1010.7
20260509134520 65 285 0.0 4.0 0.00 0.00 0.00 85 1010.7
20260509133008 63 281 1.0 3.0 0.00 0.00 0.00 88 1010.8
20260509131548 63 244 0.0 2.0 0.00 0.00 0.00 91 1010.7
20260509130037 61 238 0.0 1.0 0.00 0.00 0.00 94 1010.6
20260509124503 60 249 0.0 0.0 0.00 0.00 0.00 96 1010.5
20260509123039 60 249 0.0 0.0 0.00 0.00 0.00 96 1010.2
20260509121525 59 249 0.0 0.0 0.00 0.00 0.00 96 1010.0
20260509120059 58 249 0.0 0.0 0.00 0.00 0.00 96 1009.6
20260509114540 58 249 0.0 0.0 0.00 0.00 0.00 96 1009.4
20260509113017 57 249 0.0 0.0 0.00 0.00 0.00 96 1009.2
20260509111551 57 249 0.0 0.0 0.00 0.00 0.00 95 1009.0
20260509110030 57 249 0.0 0.0 0.00 0.00 0.00 94 1008.8
20260509104515 57 249 0.0 0.0 0.00 0.00 0.00 94 1008.6
20260509103101 58 249 0.0 0.0 0.00 0.00 0.00 94 1008.5
20260509101539 58 249 0.0 0.0 0.00 0.00 0.00 94 1008.6
20260509100023 58 249 0.0 0.0 0.00 0.00 0.00 94 1008.5
20260509094558 59 249 0.0 0.0 0.00 0.00 0.00 94 1008.6
20260509094507 59 249 0.0 0.0 0.00 0.00 0.00 94 1008.7
20260509093043 59 249 0.0 0.0 0.00 0.00 0.00 94 1008.6
20260509091528 59 249 0.0 0.0 0.00 0.00 0.00 94 1008.6
20260509090008 59 249 0.0 0.0 0.00 0.00 0.00 93 1008.8
20260509084550 59 249 0.0 0.0 0.00 0.00 0.00 93 1008.8
20260509083035 59 249 0.0 0.0 0.00 0.00 0.00 92 1008.9
20260509081512 59 249 0.0 0.0 0.00 0.00 0.00 93 1009.0
20260509080048 59 249 0.0 0.0 0.00 0.00 0.00 92 1009.0
20260509074532 59 249 0.0 0.0 0.00 0.00 0.00 92 1009.1
20260509073014 59 249 0.0 0.0 0.00 0.00 0.00 91 1009.1
20260509071553 59 249 0.0 0.0 0.00 0.00 0.00 90 1009.1
20260509070030 60 249 0.0 0.0 0.00 0.00 0.00 89 1008.8
20260509064510 60 249 0.0 0.0 0.00 0.00 0.00 89 1008.7
20260509063048 61 249 0.0 0.0 0.00 0.00 0.00 87 1008.7
20260509061528 62 249 0.0 0.0 0.00 0.00 0.00 85 1008.8
20260509060014 63 249 0.0 1.0 0.00 0.00 0.00 83 1008.5
20260509054602 63 249 1.0 2.0 0.00 0.00 0.00 82 1008.7
20260509053042 63 210 0.0 2.0 0.00 0.00 0.00 83 1008.2
20260509051522 63 210 1.0 3.0 0.00 0.00 0.00 84 1008.4
20260509050137 63 166 2.0 5.0 0.00 0.00 0.00 84 1008.1
20260509044552 63 188 1.0 2.0 0.00 0.00 0.00 83 1009.5
20260509043015 64 267 0.0 2.0 0.00 0.00 0.00 79 1011.1
20260509041554 65 254 0.0 0.0 0.00 0.00 0.00 74 1011.8
20260509040037 65 158 0.0 0.0 0.00 0.00 0.00 72 1010.6
20260509034512 64 158 0.0 2.0 0.00 0.00 0.00 72 1010.9
20260509033052 63 158 0.0 1.0 0.00 0.00 0.00 75 1010.9
20260509031529 63 79 0.0 0.0 0.00 0.00 0.00 74 1010.7
20260509030031 64 79 0.0 0.0 0.00 0.00 0.00 72 1010.7
20260509024600 64 79 0.0 0.0 0.00 0.00 0.00 70 1010.5
20260509023059 65 79 0.0 0.0 0.00 0.00 0.00 69 1010.2
20260509021538 66 79 0.0 1.0 0.00 0.00 0.00 67 1009.5
20260509020026 66 79 0.0 2.0 0.00 0.00 0.00 64 1008.9
20260509014507 67 79 0.0 1.0 0.00 0.00 0.00 64 1009.0
20260509013053 68 79 0.0 0.0 0.00 0.00 0.00 61 1008.8
20260509011540 70 79 0.0 2.0 0.00 0.00 0.00 58 1009.0
20260509010019 71 257 0.0 1.0 0.00 0.00 0.00 55 1009.0
20260509004523 72 257 0.0 2.0 0.00 0.00 0.00 54 1008.7
20260509003100 72 277 1.0 3.0 0.00 0.00 0.00 53 1008.7
20260509001537 73 334 1.0 3.0 0.00 0.00 0.00 51 1008.7
20260509000035 74 259 0.0 2.0 0.00 0.00 0.00 52 1008.7
20260508234503 73 159 0.0 6.0 0.00 0.00 0.00 53 1008.7
20260508233044 73 98 0.0 7.0 0.00 0.00 0.00 50 1008.7
20260508231525 73 108 1.0 5.0 0.00 0.00 0.00 53 1008.7
20260508230013 74 97 1.0 4.0 0.00 0.00 0.00 50 1008.7
20260508224600 74 273 0.0 3.0 0.00 0.00 0.00 51 1008.7
20260508224500 74 25 0.0 3.0 0.00 0.00 0.00 50 1008.6
20260508223040 74 153 1.0 8.0 0.00 0.00 0.00 52 1008.8
20260508221531 74 127 0.0 3.0 0.00 0.00 0.00 50 1008.5
20260508220006 75 15 0.0 4.0 0.00 0.00 0.00 50 1008.7
20260508214547 75 275 0.0 4.0 0.00 0.00 0.00 50 1008.8
20260508213029 75 287 2.0 7.0 0.00 0.00 0.00 52 1009.2
20260508211511 75 156 0.0 5.0 0.00 0.00 0.00 53 1009.4
20260508210051 75 296 1.0 4.0 0.00 0.00 0.00 49 1009.6
20260508204532 75 205 2.0 8.0 0.00 0.00 0.00 49 1009.7
20260508203009 75 208 0.0 4.0 0.00 0.00 0.00 48 1009.7
20260508201547 75 344 1.0 8.0 0.00 0.00 0.00 48 1010.1
20260508200032 76 317 1.0 5.0 0.00 0.00 0.00 51 1010.5
20260508194507 74 274 2.0 5.0 0.00 0.00 0.00 48 1010.9
20260508193048 74 83 1.0 4.0 0.00 0.00 0.00 50 1011.0
20260508191529 73 186 2.0 8.0 0.00 0.00 0.00 57 1011.2
20260508190007 73 61 3.0 10.0 0.00 0.00 0.00 51 1011.4
20260508184545 73 20 1.0 6.0 0.00 0.00 0.00 53 1011.7